Time,TemperatureF,DewpointF,PressureIn,WindDirection,WindDirectionDegrees,WindSpeedMPH,WindSpeedGustMPH,Humidity,HourlyPrecipIn,Conditions,Clouds,dailyrainin,SoftwareType,DateUTC
2013-09-11 00:01:00,61.8,61.0,30.09,SSE,157,0.0,0.0,99,0.00,,,0.00,Rainwise IP-100,2013-09-11 04:01:00,
2013-09-11 00:06:00,61.9,61.0,30.09,SSE,157,0.0,0.0,99,0.00,,,0.00,Rainwise IP-100,2013-09-11 04:06:00,
2013-09-11 00:11:00,62.1,61.0,30.09,SSE,157,0.0,0.0,99,0.00,,,0.00,Rainwise IP-100,2013-09-11 04:11:00,
2013-09-11 00:16:00,62.1,61.0,30.10,SSE,157,0.0,0.0,99,0.00,,,0.00,Rainwise IP-100,2013-09-11 04:16:00,
2013-09-11 00:21:00,62.0,61.0,30.10,WNW,292,2.8,0.0,99,0.00,,,0.00,Rainwise IP-100,2013-09-11 04:21:00,
2013-09-11 00:26:00,62.0,61.0,30.10,WNW,292,0.0,3.0,99,0.00,,,0.00,Rainwise IP-100,2013-09-11 04:26:00,
2013-09-11 00:31:00,62.0,61.0,30.11,NNW,337,0.0,2.0,99,0.00,,,0.00,Rainwise IP-100,2013-09-11 04:31:00,
2013-09-11 00:36:00,61.7,61.0,30.10,North,0,0.0,0.0,99,0.00,,,0.00,Rainwise IP-100,2013-09-11 04:36:00,
2013-09-11 00:41:00,61.5,61.0,30.10,ENE,67,0.0,3.0,99,0.00,,,0.00,Rainwise IP-100,2013-09-11 04:41:00,
2013-09-11 00:46:00,61.3,60.0,30.10,ENE,67,0.0,0.0,99,0.00,,,0.00,Rainwise IP-100,2013-09-11 04:46:00,
2013-09-11 00:51:00,61.2,60.0,30.10,ENE,67,0.0,0.0,99,0.00,,,0.00,Rainwise IP-100,2013-09-11 04:51:00,
2013-09-11 00:56:00,61.4,61.0,30.09,ENE,67,0.0,0.0,99,0.00,,,0.00,Rainwise IP-100,2013-09-11 04:56:00,
2013-09-11 01:01:00,61.6,61.0,30.09,ENE,67,1.9,1.9,99,0.00,,,0.00,Rainwise IP-100,2013-09-11 05:01:00,
2013-09-11 01:06:00,61.6,61.0,30.09,East,90,1.6,3.0,99,0.00,,,0.00,Rainwise IP-100,2013-09-11 05:06:00,
2013-09-11 01:11:00,61.3,60.0,30.09,East,90,0.0,2.0,99,0.00,,,0.00,Rainwise IP-100,2013-09-11 05:11:00,
2013-09-11 01:16:00,61.2,60.0,30.09,East,90,0.0,0.0,99,0.00,,,0.00,Rainwise IP-100,2013-09-11 05:16:00,
2013-09-11 01:21:00,61.3,60.0,30.09,East,90,0.0,0.0,99,0.00,,,0.00,Rainwise IP-100,2013-09-11 05:21:00,
2013-09-11 01:26:00,61.2,60.0,30.08,East,90,0.0,1.0,99,0.00,,,0.00,Rainwise IP-100,2013-09-11 05:26:00,
2013-09-11 01:31:00,61.2,60.0,30.09,East,90,0.0,0.0,99,0.00,,,0.00,Rainwise IP-100,2013-09-11 05:31:00,
2013-09-11 01:36:00,61.4,61.0,30.08,ESE,112,1.6,4.0,100,0.00,,,0.00,Rainwise IP-100,2013-09-11 05:36:00,
2013-09-11 01:41:00,61.4,61.0,30.08,ESE,112,1.6,2.0,100,0.00,,,0.00,Rainwise IP-100,2013-09-11 05:41:00,
2013-09-11 01:46:00,61.4,61.0,30.08,ESE,112,0.0,2.0,100,0.00,,,0.00,Rainwise IP-100,2013-09-11 05:46:00,
2013-09-11 01:51:00,61.5,61.0,30.08,ESE,112,0.0,2.0,100,0.00,,,0.00,Rainwise IP-100,2013-09-11 05:51:00,
2013-09-11 01:56:00,61.6,61.0,30.08,South,180,0.0,3.0,100,0.00,,,0.00,Rainwise IP-100,2013-09-11 05:56:00,
2013-09-11 02:01:00,61.6,61.0,30.08,SSE,157,2.3,3.0,100,0.00,,,0.00,Rainwise IP-100,2013-09-11 06:01:00,
2013-09-11 02:06:00,61.4,61.0,30.08,SSE,157,1.9,2.0,100,0.00,,,0.00,Rainwise IP-100,2013-09-11 06:06:00,
2013-09-11 02:11:00,61.3,61.0,30.08,SSE,157,1.4,2.0,100,0.00,,,0.00,Rainwise IP-100,2013-09-11 06:11:00,
2013-09-11 02:16:00,61.1,61.0,30.08,SSE,157,1.9,2.0,100,0.00,,,0.00,Rainwise IP-100,2013-09-11 06:16:00,
2013-09-11 02:21:00,61.1,61.0,30.08,SSE,157,0.0,1.0,100,0.00,,,0.00,Rainwise IP-100,2013-09-11 06:21:00,
2013-09-11 02:26:00,60.9,61.0,30.08,SE,135,3.3,3.3,100,0.00,,,0.00,Rainwise IP-100,2013-09-11 06:26:00,
2013-09-11 02:31:00,60.7,60.0,30.07,SE,135,4.9,4.9,100,0.00,,,0.00,Rainwise IP-100,2013-09-11 06:31:00,
2013-09-11 02:36:00,60.7,60.0,30.07,SE,135,2.8,6.0,100,0.00,,,0.00,Rainwise IP-100,2013-09-11 06:36:00,
2013-09-11 02:41:00,60.8,60.0,30.07,SE,135,1.9,3.0,100,0.00,,,0.00,Rainwise IP-100,2013-09-11 06:41:00,
2013-09-11 02:46:00,60.8,60.0,30.07,SE,135,1.4,2.0,100,0.00,,,0.00,Rainwise IP-100,2013-09-11 06:46:00,
2013-09-11 02:51:00,60.8,60.0,30.07,SE,135,1.2,1.2,100,0.00,,,0.00,Rainwise IP-100,2013-09-11 06:51:00,
2013-09-11 02:56:00,60.7,60.0,30.07,SE,135,0.0,1.0,100,0.00,,,0.00,Rainwise IP-100,2013-09-11 06:56:00,
2013-09-11 03:01:00,60.8,60.0,30.07,SE,135,2.6,2.6,100,0.00,,,0.00,Rainwise IP-100,2013-09-11 07:01:00,
2013-09-11 03:06:00,60.8,60.0,30.07,SE,135,2.8,3.0,100,0.00,,,0.00,Rainwise IP-100,2013-09-11 07:06:00,
2013-09-11 03:11:00,60.6,60.0,30.07,SE,135,1.9,4.0,100,0.00,,,0.00,Rainwise IP-100,2013-09-11 07:11:00,
2013-09-11 03:16:00,60.4,60.0,30.08,SE,135,3.5,3.5,100,0.00,,,0.00,Rainwise IP-100,2013-09-11 07:16:00,
2013-09-11 03:21:00,60.5,60.0,30.07,SE,135,2.1,4.0,100,0.00,,,0.00,Rainwise IP-100,2013-09-11 07:21:00,
2013-09-11 03:26:00,60.5,60.0,30.07,SE,135,2.3,2.3,100,0.00,,,0.00,Rainwise IP-100,2013-09-11 07:26:00,
2013-09-11 03:31:00,60.5,60.0,30.08,SE,135,1.4,3.0,100,0.00,,,0.00,Rainwise IP-100,2013-09-11 07:31:00,
2013-09-11 03:36:00,60.4,60.0,30.07,SE,135,3.3,4.0,100,0.00,,,0.00,Rainwise IP-100,2013-09-11 07:36:00,
2013-09-11 03:41:00,60.3,60.0,30.07,SE,135,4.0,4.0,100,0.00,,,0.00,Rainwise IP-100,2013-09-11 07:41:00,
2013-09-11 03:46:00,60.3,60.0,30.07,SSE,157,3.0,5.0,100,0.00,,,0.00,Rainwise IP-100,2013-09-11 07:46:00,
2013-09-11 03:51:00,60.4,60.0,30.07,SE,135,4.2,4.2,100,0.00,,,0.00,Rainwise IP-100,2013-09-11 07:51:00,
2013-09-11 03:56:00,60.4,60.0,30.07,SE,135,3.3,5.0,100,0.00,,,0.00,Rainwise IP-100,2013-09-11 07:56:00,
2013-09-11 04:01:00,60.4,60.0,30.07,SE,135,0.0,3.0,100,0.00,,,0.00,Rainwise IP-100,2013-09-11 08:01:00,
2013-09-11 04:06:00,60.5,60.0,30.07,SE,135,0.0,0.0,100,0.00,,,0.00,Rainwise IP-100,2013-09-11 08:06:00,
2013-09-11 04:11:00,60.6,60.0,30.08,SE,135,0.0,0.0,100,0.00,,,0.00,Rainwise IP-100,2013-09-11 08:11:00,
2013-09-11 04:16:00,60.7,60.0,30.08,SE,135,0.0,0.0,100,0.00,,,0.00,Rainwise IP-100,2013-09-11 08:16:00,
2013-09-11 04:21:00,60.8,60.0,30.08,SE,135,0.0,0.0,100,0.00,,,0.00,Rainwise IP-100,2013-09-11 08:21:00,
2013-09-11 04:26:00,60.8,60.0,30.08,SE,135,0.0,0.0,100,0.00,,,0.00,Rainwise IP-100,2013-09-11 08:26:00,
2013-09-11 04:31:00,60.7,60.0,30.08,SE,135,0.0,0.0,100,0.00,,,0.00,Rainwise IP-100,2013-09-11 08:31:00,
2013-09-11 04:36:00,60.7,60.0,30.08,SE,135,0.0,0.0,100,0.00,,,0.00,Rainwise IP-100,2013-09-11 08:36:00,
2013-09-11 04:41:00,60.8,60.0,30.08,SE,135,0.0,0.0,100,0.00,,,0.00,Rainwise IP-100,2013-09-11 08:41:00,
2013-09-11 04:46:00,60.9,61.0,30.08,SE,135,0.0,0.0,100,0.00,,,0.00,Rainwise IP-100,2013-09-11 08:46:00,
2013-09-11 04:51:00,61.0,61.0,30.08,SE,135,0.0,0.0,100,0.00,,,0.00,Rainwise IP-100,2013-09-11 08:51:00,
2013-09-11 04:56:00,61.0,61.0,30.08,SE,135,0.0,0.0,100,0.00,,,0.00,Rainwise IP-100,2013-09-11 08:56:00,
2013-09-11 05:01:00,61.0,61.0,30.07,SE,135,0.0,0.0,100,0.00,,,0.00,Rainwise IP-100,2013-09-11 09:01:00,
2013-09-11 05:06:00,61.0,61.0,30.07,SE,135,1.6,0.0,100,0.00,,,0.00,Rainwise IP-100,2013-09-11 09:06:00,
2013-09-11 05:11:00,61.0,61.0,30.06,SE,135,1.9,3.0,100,0.00,,,0.00,Rainwise IP-100,2013-09-11 09:11:00,
2013-09-11 05:16:00,61.1,61.0,30.07,SE,135,0.0,2.0,100,0.00,,,0.00,Rainwise IP-100,2013-09-11 09:16:00,
2013-09-11 05:21:00,61.2,61.0,30.06,SE,135,2.1,3.0,100,0.00,,,0.00,Rainwise IP-100,2013-09-11 09:21:00,
2013-09-11 05:26:00,61.3,61.0,30.05,SE,135,2.8,4.0,100,0.00,,,0.00,Rainwise IP-100,2013-09-11 09:26:00,
2013-09-11 05:31:00,61.2,61.0,30.05,SE,135,2.6,5.0,100,0.00,,,0.00,Rainwise IP-100,2013-09-11 09:31:00,
2013-09-11 05:36:00,60.9,61.0,30.05,ESE,112,3.7,4.0,100,0.00,,,0.00,Rainwise IP-100,2013-09-11 09:36:00,
2013-09-11 05:41:00,60.8,60.0,30.05,SE,135,1.2,5.0,100,0.00,,,0.00,Rainwise IP-100,2013-09-11 09:41:00,
2013-09-11 05:46:00,60.8,60.0,30.03,SE,135,1.9,3.0,100,0.00,,,0.00,Rainwise IP-100,2013-09-11 09:46:00,
2013-09-11 05:51:00,60.8,60.0,30.02,South,180,0.0,3.0,100,0.00,,,0.00,Rainwise IP-100,2013-09-11 09:51:00,
2013-09-11 05:56:00,61.0,61.0,30.02,South,180,4.0,5.0,100,0.00,,,0.00,Rainwise IP-100,2013-09-11 09:56:00,
2013-09-11 06:01:00,61.2,61.0,30.03,South,180,0.0,5.0,100,0.00,,,0.00,Rainwise IP-100,2013-09-11 10:01:00,
2013-09-11 06:06:00,61.5,61.0,30.04,NW,315,0.0,4.0,100,0.00,,,0.00,Rainwise IP-100,2013-09-11 10:06:00,
2013-09-11 06:11:00,61.5,61.0,30.03,ENE,67,3.0,4.0,100,0.00,,,0.00,Rainwise IP-100,2013-09-11 10:11:00,
2013-09-11 06:16:00,61.6,61.0,30.03,ENE,67,0.0,3.0,100,0.00,,,0.00,Rainwise IP-100,2013-09-11 10:16:00,
2013-09-11 06:21:00,61.8,61.0,30.05,NNW,337,1.4,3.0,100,0.00,,,0.00,Rainwise IP-100,2013-09-11 10:21:00,
2013-09-11 06:26:00,61.9,62.0,30.06,ENE,67,1.6,4.0,100,0.00,,,0.00,Rainwise IP-100,2013-09-11 10:26:00,
2013-09-11 06:31:00,61.9,62.0,30.06,NNW,337,3.0,3.0,100,0.00,,,0.00,Rainwise IP-100,2013-09-11 10:31:00,
2013-09-11 06:36:00,61.9,62.0,30.06,North,0,3.0,4.0,100,0.00,,,0.00,Rainwise IP-100,2013-09-11 10:36:00,
2013-09-11 06:41:00,61.8,61.0,30.06,NNW,337,0.0,4.0,100,0.00,,,0.00,Rainwise IP-100,2013-09-11 10:41:00,
2013-09-11 06:46:00,61.8,61.0,30.06,NNW,337,0.0,2.0,100,0.00,,,0.00,Rainwise IP-100,2013-09-11 10:46:00,
2013-09-11 06:51:00,61.7,61.0,30.06,NNW,337,2.1,3.0,100,0.00,,,0.00,Rainwise IP-100,2013-09-11 10:51:00,
2013-09-11 06:56:00,61.7,61.0,30.06,NNW,337,0.0,2.0,100,0.00,,,0.00,Rainwise IP-100,2013-09-11 10:56:00,
2013-09-11 07:01:00,61.7,61.0,30.06,NW,315,1.9,3.0,100,0.00,,,0.00,Rainwise IP-100,2013-09-11 11:01:00,
2013-09-11 07:06:00,61.7,61.0,30.06,NW,315,2.6,2.6,100,0.00,,,0.00,Rainwise IP-100,2013-09-11 11:06:00,
2013-09-11 07:11:00,61.7,61.0,30.06,NW,315,2.1,3.0,100,0.00,,,0.00,Rainwise IP-100,2013-09-11 11:11:00,
2013-09-11 07:16:00,61.7,61.0,30.06,NW,315,0.0,2.0,100,0.00,,,0.00,Rainwise IP-100,2013-09-11 11:16:00,
2013-09-11 07:21:00,61.8,61.0,30.07,NW,315,0.0,1.0,100,0.00,,,0.00,Rainwise IP-100,2013-09-11 11:21:00,
2013-09-11 07:26:00,61.9,62.0,30.06,NW,315,0.0,2.0,100,0.00,,,0.00,Rainwise IP-100,2013-09-11 11:26:00,
2013-09-11 07:31:00,62.1,62.0,30.06,NW,315,0.0,1.0,100,0.00,,,0.00,Rainwise IP-100,2013-09-11 11:31:00,
2013-09-11 07:36:00,62.2,62.0,30.06,NW,315,0.0,0.0,100,0.00,,,0.00,Rainwise IP-100,2013-09-11 11:36:00,
2013-09-11 07:41:00,62.3,62.0,30.06,NW,315,1.6,1.6,100,0.00,,,0.00,Rainwise IP-100,2013-09-11 11:41:00,
2013-09-11 07:46:00,62.4,62.0,30.05,NW,315,0.0,2.0,100,0.00,,,0.00,Rainwise IP-100,2013-09-11 11:46:00,
2013-09-11 07:51:00,62.4,62.0,30.06,NW,315,0.0,1.0,100,0.00,,,0.00,Rainwise IP-100,2013-09-11 11:51:00,
2013-09-11 07:56:00,62.4,62.0,30.06,NW,315,0.0,0.0,100,0.00,,,0.00,Rainwise IP-100,2013-09-11 11:56:00,
2013-09-11 08:01:00,62.3,62.0,30.06,NW,315,0.0,0.0,100,0.00,,,0.00,Rainwise IP-100,2013-09-11 12:01:00,
2013-09-11 08:06:00,62.5,62.0,30.06,NW,315,2.1,2.1,100,0.00,,,0.00,Rainwise IP-100,2013-09-11 12:06:00,
2013-09-11 08:11:00,62.8,62.0,30.06,NW,315,0.0,2.0,100,0.00,,,0.00,Rainwise IP-100,2013-09-11 12:11:00,
2013-09-11 08:16:00,63.0,63.0,30.06,NW,315,0.0,1.0,100,0.00,,,0.00,Rainwise IP-100,2013-09-11 12:16:00,
2013-09-11 08:21:00,62.6,62.0,30.06,NNW,337,0.0,0.0,100,0.00,,,0.00,Rainwise IP-100,2013-09-11 12:21:00,
2013-09-11 08:26:00,62.4,62.0,30.05,NNE,22,0.0,0.0,100,0.00,,,0.00,Rainwise IP-100,2013-09-11 12:26:00,
2013-09-11 08:31:00,62.7,62.0,30.05,NE,45,1.9,2.0,100,0.00,,,0.00,Rainwise IP-100,2013-09-11 12:31:00,
2013-09-11 08:36:00,62.7,62.0,30.06,ENE,67,0.0,4.0,100,0.00,,,0.00,Rainwise IP-100,2013-09-11 12:36:00,
2013-09-11 08:41:00,62.8,62.0,30.06,ENE,67,1.9,2.0,100,0.00,,,0.00,Rainwise IP-100,2013-09-11 12:41:00,
2013-09-11 08:46:00,62.6,62.0,30.06,ENE,67,0.0,3.0,100,0.00,,,0.00,Rainwise IP-100,2013-09-11 12:46:00,
2013-09-11 08:51:00,62.3,62.0,30.06,ENE,67,1.4,3.0,100,0.00,,,0.00,Rainwise IP-100,2013-09-11 12:51:00,
2013-09-11 08:56:00,62.0,62.0,30.06,East,90,2.1,2.1,100,0.00,,,0.00,Rainwise IP-100,2013-09-11 12:56:00,
2013-09-11 09:01:00,62.0,62.0,30.06,ESE,112,1.2,4.0,100,0.00,,,0.00,Rainwise IP-100,2013-09-11 13:01:00,
2013-09-11 09:06:00,62.3,62.0,30.06,ESE,112,1.2,2.0,100,0.00,,,0.00,Rainwise IP-100,2013-09-11 13:06:00,
2013-09-11 09:11:00,62.6,62.0,30.06,ESE,112,0.0,1.0,100,0.00,,,0.00,Rainwise IP-100,2013-09-11 13:11:00,
2013-09-11 09:16:00,62.3,62.0,30.06,East,90,2.1,3.0,100,0.00,,,0.00,Rainwise IP-100,2013-09-11 13:16:00,
2013-09-11 09:21:00,62.4,62.0,30.06,East,90,0.0,2.0,100,0.00,,,0.00,Rainwise IP-100,2013-09-11 13:21:00,
2013-09-11 09:26:00,63.3,63.0,30.06,NE,45,1.6,0.0,100,0.00,,,0.00,Rainwise IP-100,2013-09-11 13:26:00,
2013-09-11 09:31:00,63.9,64.0,30.06,NW,315,1.9,2.0,100,0.00,,,0.00,Rainwise IP-100,2013-09-11 13:31:00,
2013-09-11 09:36:00,64.5,64.0,30.06,NW,315,1.9,2.0,100,0.00,,,0.00,Rainwise IP-100,2013-09-11 13:36:00,
2013-09-11 09:41:00,64.9,65.0,30.05,NNW,337,1.6,2.0,100,0.00,,,0.00,Rainwise IP-100,2013-09-11 13:41:00,
2013-09-11 09:46:00,65.5,65.0,30.05,NNW,337,0.0,3.0,100,0.00,,,0.00,Rainwise IP-100,2013-09-11 13:46:00,
2013-09-11 09:51:00,66.3,66.0,30.04,NNW,337,0.0,2.0,100,0.00,,,0.00,Rainwise IP-100,2013-09-11 13:51:00,
2013-09-11 09:56:00,66.7,66.0,30.06,NNW,337,0.0,2.0,100,0.00,,,0.00,Rainwise IP-100,2013-09-11 13:56:00,
2013-09-11 10:01:00,66.7,66.0,30.06,NNW,337,1.9,2.0,99,0.00,,,0.00,Rainwise IP-100,2013-09-11 14:01:00,
2013-09-11 10:06:00,66.7,66.0,30.05,NW,315,1.6,3.0,99,0.00,,,0.00,Rainwise IP-100,2013-09-11 14:06:00,
2013-09-11 10:11:00,67.0,66.0,30.05,NNW,337,0.0,2.0,98,0.00,,,0.00,Rainwise IP-100,2013-09-11 14:11:00,
2013-09-11 10:16:00,67.5,66.0,30.04,NNW,337,1.4,1.4,97,0.00,,,0.00,Rainwise IP-100,2013-09-11 14:16:00,
2013-09-11 10:21:00,67.9,66.0,30.04,NNW,337,1.2,2.0,96,0.00,,,0.00,Rainwise IP-100,2013-09-11 14:21:00,
2013-09-11 10:26:00,68.2,66.0,30.04,NNW,337,0.0,2.0,94,0.00,,,0.00,Rainwise IP-100,2013-09-11 14:26:00,
2013-09-11 10:31:00,68.6,66.0,30.04,NNW,337,1.9,2.0,93,0.00,,,0.00,Rainwise IP-100,2013-09-11 14:31:00,
2013-09-11 10:36:00,68.9,66.0,30.04,NNW,337,2.3,4.0,91,0.00,,,0.00,Rainwise IP-100,2013-09-11 14:36:00,
2013-09-11 10:41:00,68.6,65.0,30.03,NW,315,2.8,6.0,89,0.00,,,0.00,Rainwise IP-100,2013-09-11 14:41:00,
2013-09-11 10:46:00,68.8,65.0,30.03,NW,315,1.9,3.0,88,0.00,,,0.00,Rainwise IP-100,2013-09-11 14:46:00,
2013-09-11 10:51:00,69.7,66.0,30.03,NNW,337,1.4,2.0,87,0.00,,,0.00,Rainwise IP-100,2013-09-11 14:51:00,
2013-09-11 10:56:00,70.3,66.0,30.03,NNW,337,0.0,3.0,86,0.00,,,0.00,Rainwise IP-100,2013-09-11 14:56:00,
2013-09-11 11:01:00,70.9,66.0,30.03,North,0,1.2,2.0,85,0.00,,,0.00,Rainwise IP-100,2013-09-11 15:01:00,
2013-09-11 11:06:00,70.9,65.0,30.03,East,90,1.4,2.0,83,0.00,,,0.00,Rainwise IP-100,2013-09-11 15:06:00,
2013-09-11 11:11:00,69.8,64.0,30.03,ENE,67,2.6,2.6,82,0.00,,,0.00,Rainwise IP-100,2013-09-11 15:11:00,
2013-09-11 11:16:00,69.9,64.0,30.03,NNE,22,0.0,3.0,82,0.00,,,0.00,Rainwise IP-100,2013-09-11 15:16:00,
2013-09-11 11:21:00,71.5,65.0,30.02,NNE,22,0.0,2.0,81,0.00,,,0.00,Rainwise IP-100,2013-09-11 15:21:00,
2013-09-11 11:26:00,72.5,66.0,30.03,NNE,22,0.0,2.0,79,0.00,,,0.00,Rainwise IP-100,2013-09-11 15:26:00,
2013-09-11 11:31:00,73.2,66.0,30.02,NNE,22,1.2,1.2,78,0.00,,,0.00,Rainwise IP-100,2013-09-11 15:31:00,
2013-09-11 11:36:00,73.2,66.0,30.02,NNE,22,0.0,4.0,77,0.00,,,0.00,Rainwise IP-100,2013-09-11 15:36:00,
2013-09-11 11:41:00,72.6,65.0,30.02,East,90,1.2,3.0,77,0.00,,,0.00,Rainwise IP-100,2013-09-11 15:41:00,
2013-09-11 11:46:00,70.5,64.0,30.02,East,90,0.0,3.0,80,0.00,,,0.00,Rainwise IP-100,2013-09-11 15:46:00,
2013-09-11 11:51:00,68.8,63.0,30.01,ESE,112,3.5,4.0,83,0.00,,,0.00,Rainwise IP-100,2013-09-11 15:51:00,
2013-09-11 11:56:00,69.1,65.0,30.00,SE,135,4.7,7.0,87,0.00,,,0.00,Rainwise IP-100,2013-09-11 15:56:00,
2013-09-11 12:01:00,69.6,66.0,30.01,ESE,112,2.1,5.0,91,0.00,,,0.00,Rainwise IP-100,2013-09-11 16:01:00,
2013-09-11 12:06:00,69.8,66.0,30.00,East,90,2.1,3.0,91,0.00,,,0.00,Rainwise IP-100,2013-09-11 16:06:00,
2013-09-11 12:11:00,69.7,66.0,30.00,ESE,112,3.0,3.0,90,0.00,,,0.00,Rainwise IP-100,2013-09-11 16:11:00,
2013-09-11 12:16:00,69.7,66.0,30.00,East,90,2.6,3.0,89,0.00,,,0.00,Rainwise IP-100,2013-09-11 16:16:00,
2013-09-11 12:21:00,70.2,66.0,30.00,East,90,2.3,3.0,88,0.00,,,0.00,Rainwise IP-100,2013-09-11 16:21:00,
2013-09-11 12:26:00,70.6,66.0,29.98,ESE,112,1.2,4.0,86,0.00,,,0.00,Rainwise IP-100,2013-09-11 16:26:00,
2013-09-11 12:31:00,71.3,66.0,29.99,NNE,22,2.6,4.0,86,0.00,,,0.00,Rainwise IP-100,2013-09-11 16:31:00,
2013-09-11 12:36:00,72.1,66.0,29.99,East,90,0.0,4.0,84,0.00,,,0.00,Rainwise IP-100,2013-09-11 16:36:00,
2013-09-11 12:41:00,73.2,67.0,29.99,NE,45,1.6,2.0,82,0.00,,,0.00,Rainwise IP-100,2013-09-11 16:41:00,
2013-09-11 12:46:00,73.6,67.0,29.99,ENE,67,4.7,4.7,80,0.00,,,0.00,Rainwise IP-100,2013-09-11 16:46:00,
2013-09-11 12:51:00,72.0,65.0,29.99,ENE,67,4.2,5.0,80,0.00,,,0.00,Rainwise IP-100,2013-09-11 16:51:00,
2013-09-11 12:56:00,70.3,64.0,29.99,ESE,112,1.2,5.0,83,0.00,,,0.00,Rainwise IP-100,2013-09-11 16:56:00,
2013-09-11 13:01:00,70.7,66.0,29.99,NNE,22,1.6,4.0,85,0.00,,,0.00,Rainwise IP-100,2013-09-11 17:01:00,
2013-09-11 13:06:00,73.0,67.0,29.99,WNW,292,1.9,4.0,83,0.00,,,0.00,Rainwise IP-100,2013-09-11 17:06:00,
2013-09-11 13:11:00,74.5,68.0,29.99,NE,45,2.3,3.0,80,0.00,,,0.00,Rainwise IP-100,2013-09-11 17:11:00,
2013-09-11 13:16:00,74.9,67.0,29.99,NNE,22,1.6,5.0,77,0.00,,,0.00,Rainwise IP-100,2013-09-11 17:16:00,
2013-09-11 13:21:00,75.1,67.0,29.98,NE,45,2.3,3.0,76,0.00,,,0.00,Rainwise IP-100,2013-09-11 17:21:00,
2013-09-11 13:26:00,74.3,66.0,29.98,ENE,67,1.6,5.0,76,0.00,,,0.00,Rainwise IP-100,2013-09-11 17:26:00,
2013-09-11 13:31:00,73.9,66.0,29.99,East,90,2.6,2.6,76,0.00,,,0.00,Rainwise IP-100,2013-09-11 17:31:00,
2013-09-11 13:36:00,72.6,65.0,29.99,East,90,1.4,4.0,77,0.00,,,0.00,Rainwise IP-100,2013-09-11 17:36:00,
2013-09-11 13:41:00,71.4,64.0,29.99,ENE,67,1.6,4.0,78,0.00,,,0.00,Rainwise IP-100,2013-09-11 17:41:00,
2013-09-11 13:46:00,71.4,64.0,29.98,East,90,2.1,3.0,79,0.00,,,0.00,Rainwise IP-100,2013-09-11 17:46:00,
2013-09-11 13:51:00,70.4,64.0,29.98,ESE,112,2.1,3.0,80,0.00,,,0.00,Rainwise IP-100,2013-09-11 17:51:00,
2013-09-11 13:56:00,69.8,64.0,29.98,SE,135,4.0,4.0,82,0.00,,,0.00,Rainwise IP-100,2013-09-11 17:56:00,
2013-09-11 14:01:00,69.7,65.0,29.98,SE,135,1.9,5.0,85,0.00,,,0.00,Rainwise IP-100,2013-09-11 18:01:00,
2013-09-11 14:06:00,69.8,65.0,29.98,SE,135,3.3,4.0,86,0.00,,,0.00,Rainwise IP-100,2013-09-11 18:06:00,
2013-09-11 14:11:00,69.3,65.0,29.98,East,90,4.7,5.0,86,0.00,,,0.00,Rainwise IP-100,2013-09-11 18:11:00,
2013-09-11 14:16:00,67.8,63.0,29.97,ESE,112,3.0,5.0,86,0.00,,,0.00,Rainwise IP-100,2013-09-11 18:16:00,
2013-09-11 14:21:00,67.5,63.0,29.97,ESE,112,2.3,3.0,87,0.00,,,0.00,Rainwise IP-100,2013-09-11 18:21:00,
2013-09-11 14:26:00,68.5,65.0,29.97,East,90,4.2,4.2,88,0.00,,,0.00,Rainwise IP-100,2013-09-11 18:26:00,
2013-09-11 14:31:00,68.0,63.0,29.97,ESE,112,2.6,5.0,86,0.00,,,0.00,Rainwise IP-100,2013-09-11 18:31:00,
2013-09-11 14:36:00,67.4,63.0,29.97,ESE,112,3.0,4.0,86,0.00,,,0.00,Rainwise IP-100,2013-09-11 18:36:00,
2013-09-11 14:41:00,67.4,63.0,29.96,ENE,67,1.9,6.0,86,0.00,,,0.00,Rainwise IP-100,2013-09-11 18:41:00,
2013-09-11 14:46:00,67.7,63.0,29.97,ENE,67,1.9,3.0,86,0.00,,,0.00,Rainwise IP-100,2013-09-11 18:46:00,
2013-09-11 14:51:00,68.6,63.0,29.96,East,90,2.3,3.0,84,0.00,,,0.00,Rainwise IP-100,2013-09-11 18:51:00,
2013-09-11 14:56:00,68.5,63.0,29.96,East,90,3.3,3.3,83,0.00,,,0.00,Rainwise IP-100,2013-09-11 18:56:00,
2013-09-11 15:01:00,68.2,62.0,29.96,East,90,2.8,4.0,83,0.00,,,0.00,Rainwise IP-100,2013-09-11 19:01:00,
2013-09-11 15:06:00,67.6,62.0,29.96,ESE,112,3.0,4.0,84,0.00,,,0.00,Rainwise IP-100,2013-09-11 19:06:00,
2013-09-11 15:11:00,67.2,62.0,29.96,ESE,112,3.0,4.0,84,0.00,,,0.00,Rainwise IP-100,2013-09-11 19:11:00,
2013-09-11 15:16:00,67.7,63.0,29.96,ESE,112,2.1,3.0,86,0.00,,,0.00,Rainwise IP-100,2013-09-11 19:16:00,
2013-09-11 15:21:00,68.4,64.0,29.95,ESE,112,2.6,4.0,87,0.00,,,0.00,Rainwise IP-100,2013-09-11 19:21:00,
2013-09-11 15:26:00,68.4,64.0,29.95,ESE,112,1.2,3.0,86,0.00,,,0.00,Rainwise IP-100,2013-09-11 19:26:00,
2013-09-11 15:31:00,69.2,64.0,29.95,ESE,112,5.4,5.4,85,0.00,,,0.00,Rainwise IP-100,2013-09-11 19:31:00,
2013-09-11 15:36:00,69.0,64.0,29.95,ESE,112,6.3,7.0,85,0.00,,,0.00,Rainwise IP-100,2013-09-11 19:36:00,
2013-09-11 15:41:00,67.0,63.0,29.95,ESE,112,5.6,7.0,87,0.00,,,0.00,Rainwise IP-100,2013-09-11 19:41:00,
2013-09-11 15:46:00,66.4,63.0,29.95,East,90,2.6,8.0,89,0.00,,,0.00,Rainwise IP-100,2013-09-11 19:46:00,
2013-09-11 15:51:00,66.8,63.0,29.95,ENE,67,4.7,4.7,89,0.00,,,0.00,Rainwise IP-100,2013-09-11 19:51:00,
2013-09-11 15:56:00,67.3,63.0,29.94,ESE,112,2.1,5.0,88,0.00,,,0.00,Rainwise IP-100,2013-09-11 19:56:00,
2013-09-11 16:01:00,68.3,64.0,29.94,NE,45,3.3,3.3,88,0.00,,,0.00,Rainwise IP-100,2013-09-11 20:01:00,
2013-09-11 16:06:00,68.5,64.0,29.94,ESE,112,2.8,7.0,87,0.00,,,0.00,Rainwise IP-100,2013-09-11 20:06:00,
2013-09-11 16:11:00,68.0,64.0,29.94,SSE,157,1.4,4.0,87,0.00,,,0.00,Rainwise IP-100,2013-09-11 20:11:00,
2013-09-11 16:16:00,69.0,65.0,29.94,SE,135,2.8,6.0,87,0.00,,,0.00,Rainwise IP-100,2013-09-11 20:16:00,
2013-09-11 16:21:00,70.5,66.0,29.94,South,180,0.0,6.0,88,0.00,,,0.00,Rainwise IP-100,2013-09-11 20:21:00,
2013-09-11 16:26:00,71.3,67.0,29.93,SE,135,4.9,4.9,87,0.00,,,0.00,Rainwise IP-100,2013-09-11 20:26:00,
2013-09-11 16:31:00,71.8,66.0,29.93,East,90,1.6,5.0,85,0.00,,,0.00,Rainwise IP-100,2013-09-11 20:31:00,
2013-09-11 16:36:00,72.6,67.0,29.93,ENE,67,0.0,3.0,84,0.00,,,0.00,Rainwise IP-100,2013-09-11 20:36:00,
2013-09-11 16:41:00,73.4,68.0,29.93,SW,225,0.0,4.0,83,0.00,,,0.00,Rainwise IP-100,2013-09-11 20:41:00,
2013-09-11 16:46:00,72.6,67.0,29.93,East,90,4.2,8.0,83,0.00,,,0.00,Rainwise IP-100,2013-09-11 20:46:00,
2013-09-11 16:51:00,70.8,65.0,29.94,ESE,112,5.4,7.0,83,0.00,,,0.00,Rainwise IP-100,2013-09-11 20:51:00,
2013-09-11 16:56:00,69.1,64.0,29.93,SE,135,3.5,8.0,85,0.00,,,0.00,Rainwise IP-100,2013-09-11 20:56:00,
2013-09-11 17:01:00,67.9,64.0,29.93,East,90,4.4,7.0,87,0.00,,,0.00,Rainwise IP-100,2013-09-11 21:01:00,
2013-09-11 17:06:00,67.6,64.0,29.93,ESE,112,6.1,8.0,89,0.00,,,0.00,Rainwise IP-100,2013-09-11 21:06:00,
2013-09-11 17:11:00,67.3,64.0,29.93,ESE,112,2.8,7.0,90,0.00,,,0.00,Rainwise IP-100,2013-09-11 21:11:00,
2013-09-11 17:16:00,67.6,64.0,29.93,East,90,3.5,6.0,90,0.00,,,0.00,Rainwise IP-100,2013-09-11 21:16:00,
2013-09-11 17:21:00,67.9,65.0,29.93,ESE,112,6.1,7.0,90,0.00,,,0.00,Rainwise IP-100,2013-09-11 21:21:00,
2013-09-11 17:26:00,67.1,64.0,29.93,East,90,5.1,7.0,89,0.00,,,0.00,Rainwise IP-100,2013-09-11 21:26:00,
2013-09-11 17:31:00,66.5,63.0,29.93,SE,135,3.7,7.0,90,0.00,,,0.00,Rainwise IP-100,2013-09-11 21:31:00,
2013-09-11 17:36:00,66.4,63.0,29.93,SSE,157,7.2,8.0,90,0.00,,,0.00,Rainwise IP-100,2013-09-11 21:36:00,
2013-09-11 17:41:00,66.3,63.0,29.93,SE,135,4.0,8.0,91,0.00,,,0.00,Rainwise IP-100,2013-09-11 21:41:00,
2013-09-11 17:46:00,66.1,63.0,29.93,ESE,112,4.7,6.0,91,0.00,,,0.00,Rainwise IP-100,2013-09-11 21:46:00,
2013-09-11 17:51:00,66.2,64.0,29.93,South,180,2.3,7.0,92,0.00,,,0.00,Rainwise IP-100,2013-09-11 21:51:00,
2013-09-11 17:56:00,66.0,63.0,29.93,SE,135,4.4,10.0,92,0.00,,,0.00,Rainwise IP-100,2013-09-11 21:56:00,
2013-09-11 18:01:00,65.2,62.0,29.93,ESE,112,3.7,5.0,92,0.00,,,0.00,Rainwise IP-100,2013-09-11 22:01:00,
2013-09-11 18:06:00,64.6,62.0,29.93,East,90,3.5,4.0,92,0.00,,,0.00,Rainwise IP-100,2013-09-11 22:06:00,
2013-09-11 18:11:00,64.1,61.0,29.92,East,90,2.6,4.0,92,0.00,,,0.00,Rainwise IP-100,2013-09-11 22:11:00,
2013-09-11 18:16:00,64.0,61.0,29.93,NE,45,0.0,3.0,92,0.00,,,0.00,Rainwise IP-100,2013-09-11 22:16:00,
2013-09-11 18:21:00,64.2,61.0,29.93,North,0,1.2,2.0,92,0.00,,,0.00,Rainwise IP-100,2013-09-11 22:21:00,
2013-09-11 18:26:00,64.1,61.0,29.93,East,90,3.0,3.0,90,0.00,,,0.00,Rainwise IP-100,2013-09-11 22:26:00,
2013-09-11 18:31:00,63.4,61.0,29.92,SE,135,0.0,3.0,91,0.00,,,0.00,Rainwise IP-100,2013-09-11 22:31:00,
2013-09-11 18:36:00,63.6,61.0,29.93,East,90,0.0,5.0,92,0.00,,,0.00,Rainwise IP-100,2013-09-11 22:36:00,
2013-09-11 18:41:00,64.0,62.0,29.93,ESE,112,4.0,5.0,93,0.00,,,0.00,Rainwise IP-100,2013-09-11 22:41:00,
2013-09-11 18:46:00,64.1,62.0,29.92,ESE,112,1.2,4.0,94,0.00,,,0.00,Rainwise IP-100,2013-09-11 22:46:00,
2013-09-11 18:51:00,64.5,62.0,29.92,ESE,112,1.6,2.0,94,0.00,,,0.00,Rainwise IP-100,2013-09-11 22:51:00,
2013-09-11 18:56:00,65.0,63.0,29.92,ESE,112,0.0,2.0,94,0.00,,,0.00,Rainwise IP-100,2013-09-11 22:56:00,
2013-09-11 19:01:00,64.7,62.0,29.92,ESE,112,1.6,3.0,94,0.00,,,0.00,Rainwise IP-100,2013-09-11 23:01:00,
2013-09-11 19:06:00,64.5,62.0,29.92,ESE,112,3.7,7.0,94,0.00,,,0.00,Rainwise IP-100,2013-09-11 23:06:00,
2013-09-11 19:11:00,64.3,62.0,29.93,East,90,3.0,7.0,94,0.00,,,0.00,Rainwise IP-100,2013-09-11 23:11:00,
2013-09-11 19:16:00,63.7,61.0,29.93,ESE,112,3.5,6.0,94,0.00,,,0.00,Rainwise IP-100,2013-09-11 23:16:00,
2013-09-11 19:21:00,63.8,62.0,29.93,SE,135,2.8,4.0,95,0.00,,,0.00,Rainwise IP-100,2013-09-11 23:21:00,
2013-09-11 19:26:00,64.6,63.0,29.93,SE,135,1.4,3.0,95,0.00,,,0.00,Rainwise IP-100,2013-09-11 23:26:00,
2013-09-11 19:31:00,65.4,64.0,29.93,SE,135,0.0,1.0,95,0.00,,,0.00,Rainwise IP-100,2013-09-11 23:31:00,
2013-09-11 19:36:00,66.4,65.0,29.93,WSW,247,0.0,2.0,95,0.00,,,0.00,Rainwise IP-100,2013-09-11 23:36:00,
2013-09-11 19:41:00,69.6,68.0,29.93,WNW,292,1.6,11.0,94,0.00,,,0.00,Rainwise IP-100,2013-09-11 23:41:00,
2013-09-11 19:46:00,74.7,71.0,29.92,West,270,1.4,9.0,89,0.00,,,0.00,Rainwise IP-100,2013-09-11 23:46:00,
2013-09-11 19:51:00,78.7,72.0,29.92,WNW,292,6.8,14.0,82,0.00,,,0.00,Rainwise IP-100,2013-09-11 23:51:00,
2013-09-11 19:56:00,80.9,73.0,29.93,WNW,292,5.1,14.0,77,0.00,,,0.00,Rainwise IP-100,2013-09-11 23:56:00,
2013-09-11 20:01:00,81.9,72.0,29.93,WNW,292,4.4,13.0,74,0.00,,,0.00,Rainwise IP-100,2013-09-12 00:01:00,
2013-09-11 20:06:00,82.0,72.0,29.92,West,270,7.7,14.0,73,0.00,,,0.00,Rainwise IP-100,2013-09-12 00:06:00,
2013-09-11 20:11:00,81.7,72.0,29.93,West,270,8.2,12.0,73,0.00,,,0.00,Rainwise IP-100,2013-09-12 00:11:00,
2013-09-11 20:16:00,81.5,72.0,29.93,West,270,7.5,11.0,73,0.00,,,0.00,Rainwise IP-100,2013-09-12 00:16:00,
2013-09-11 20:21:00,81.4,72.0,29.93,West,270,5.4,12.0,73,0.00,,,0.00,Rainwise IP-100,2013-09-12 00:21:00,
2013-09-11 20:26:00,81.2,72.0,29.94,West,270,8.6,12.0,73,0.00,,,0.00,Rainwise IP-100,2013-09-12 00:26:00,
2013-09-11 20:31:00,81.0,71.0,29.93,West,270,6.5,11.0,73,0.00,,,0.00,Rainwise IP-100,2013-09-12 00:31:00,
2013-09-11 20:36:00,81.1,71.0,29.94,West,270,6.8,12.0,73,0.00,,,0.00,Rainwise IP-100,2013-09-12 00:36:00,
2013-09-11 20:41:00,81.1,71.0,29.94,West,270,10.0,14.0,73,0.00,,,0.00,Rainwise IP-100,2013-09-12 00:41:00,
2013-09-11 20:46:00,80.9,71.0,29.93,WNW,292,9.1,12.0,73,0.00,,,0.00,Rainwise IP-100,2013-09-12 00:46:00,
2013-09-11 20:51:00,80.5,71.0,29.94,WNW,292,9.3,14.0,73,0.00,,,0.00,Rainwise IP-100,2013-09-12 00:51:00,
2013-09-11 20:56:00,80.2,71.0,29.94,West,270,9.1,17.0,73,0.00,,,0.00,Rainwise IP-100,2013-09-12 00:56:00,
2013-09-11 21:01:00,80.1,71.0,29.94,NW,315,8.6,15.0,74,0.00,,,0.00,Rainwise IP-100,2013-09-12 01:01:00,
2013-09-11 21:06:00,80.1,71.0,29.94,WNW,292,9.1,13.0,74,0.00,,,0.00,Rainwise IP-100,2013-09-12 01:06:00,
2013-09-11 21:11:00,80.2,71.0,29.94,West,270,11.7,14.0,74,0.00,,,0.00,Rainwise IP-100,2013-09-12 01:11:00,
2013-09-11 21:16:00,80.4,71.0,29.94,NW,315,10.7,13.0,73,0.00,,,0.00,Rainwise IP-100,2013-09-12 01:16:00,
2013-09-11 21:21:00,80.2,71.0,29.94,West,270,11.4,19.0,73,0.00,,,0.00,Rainwise IP-100,2013-09-12 01:21:00,
2013-09-11 21:26:00,79.9,71.0,29.94,West,270,13.5,14.0,74,0.00,,,0.00,Rainwise IP-100,2013-09-12 01:26:00,
2013-09-11 21:31:00,79.5,70.0,29.94,WNW,292,7.9,14.0,74,0.00,,,0.00,Rainwise IP-100,2013-09-12 01:31:00,
2013-09-11 21:36:00,79.1,70.0,29.95,West,270,8.6,14.0,75,0.00,,,0.00,Rainwise IP-100,2013-09-12 01:36:00,
2013-09-11 21:41:00,78.8,70.0,29.95,West,270,10.5,15.0,75,0.00,,,0.00,Rainwise IP-100,2013-09-12 01:41:00,
2013-09-11 21:46:00,78.8,70.0,29.95,West,270,18.0,22.0,75,0.00,,,0.00,Rainwise IP-100,2013-09-12 01:46:00,
2013-09-11 21:51:00,78.8,69.0,29.95,NW,315,11.4,21.0,74,0.00,,,0.00,Rainwise IP-100,2013-09-12 01:51:00,
2013-09-11 21:53:00,78.7,69.0,29.95,WSW,247,26.3,26.3,74,0.00,,,0.00,Rainwise IP-100,2013-09-12 01:53:00,
2013-09-11 21:58:00,77.8,69.0,29.96,WNW,292,18.9,26.0,75,0.00,,,0.00,Rainwise IP-100,2013-09-12 01:58:00,
2013-09-11 22:03:00,76.7,69.0,29.94,WNW,292,10.3,28.0,77,0.00,,,0.00,Rainwise IP-100,2013-09-12 02:03:00,
2013-09-11 22:08:00,76.6,69.0,29.94,West,270,11.4,20.0,77,0.00,,,0.00,Rainwise IP-100,2013-09-12 02:08:00,
2013-09-11 22:13:00,76.5,68.0,29.93,WSW,247,11.7,18.0,76,0.00,,,0.00,Rainwise IP-100,2013-09-12 02:13:00,
2013-09-11 22:18:00,75.8,68.0,29.93,WSW,247,8.6,15.0,78,0.00,,,0.00,Rainwise IP-100,2013-09-12 02:18:00,
2013-09-11 22:23:00,75.3,68.0,29.92,West,270,8.9,17.0,79,0.00,,,0.00,Rainwise IP-100,2013-09-12 02:23:00,
2013-09-11 22:28:00,75.2,68.0,29.91,West,270,7.5,13.0,80,0.00,,,0.00,Rainwise IP-100,2013-09-12 02:28:00,
2013-09-11 22:33:00,75.3,68.0,29.92,West,270,10.3,15.0,80,0.00,,,0.00,Rainwise IP-100,2013-09-12 02:33:00,
2013-09-11 22:38:00,76.1,68.0,29.93,West,270,7.2,15.0,78,0.00,,,0.00,Rainwise IP-100,2013-09-12 02:38:00,
2013-09-11 22:43:00,77.0,69.0,29.92,West,270,6.5,10.0,75,0.00,,,0.00,Rainwise IP-100,2013-09-12 02:43:00,
2013-09-11 22:48:00,77.8,68.0,29.92,West,270,10.5,11.0,73,0.00,,,0.00,Rainwise IP-100,2013-09-12 02:48:00,
2013-09-11 22:53:00,78.5,68.0,29.93,West,270,13.1,13.1,70,0.00,,,0.00,Rainwise IP-100,2013-09-12 02:53:00,
2013-09-11 22:58:00,78.6,67.0,29.93,West,270,8.4,15.0,69,0.00,,,0.00,Rainwise IP-100,2013-09-12 02:58:00,
2013-09-11 23:03:00,78.3,67.0,29.93,West,270,12.4,13.0,69,0.00,,,0.00,Rainwise IP-100,2013-09-12 03:03:00,
2013-09-11 23:08:00,78.5,67.0,29.93,West,270,10.5,14.0,68,0.00,,,0.00,Rainwise IP-100,2013-09-12 03:08:00,
2013-09-11 23:13:00,78.6,67.0,29.92,West,270,10.7,17.0,68,0.00,,,0.00,Rainwise IP-100,2013-09-12 03:13:00,
2013-09-11 23:18:00,78.5,66.0,29.92,West,270,8.6,13.0,67,0.00,,,0.00,Rainwise IP-100,2013-09-12 03:18:00,
2013-09-11 23:23:00,78.4,66.0,29.92,WNW,292,7.7,14.0,67,0.00,,,0.00,Rainwise IP-100,2013-09-12 03:23:00,
2013-09-11 23:28:00,78.0,66.0,29.93,NW,315,5.4,10.0,68,0.00,,,0.00,Rainwise IP-100,2013-09-12 03:28:00,
2013-09-11 23:33:00,77.9,67.0,29.93,West,270,6.5,10.0,69,0.00,,,0.00,Rainwise IP-100,2013-09-12 03:33:00,
2013-09-11 23:38:00,77.9,67.0,29.93,West,270,5.1,12.0,70,0.00,,,0.00,Rainwise IP-100,2013-09-12 03:38:00,
2013-09-11 23:43:00,78.1,67.0,29.94,West,270,11.2,17.0,70,0.00,,,0.00,Rainwise IP-100,2013-09-12 03:43:00,
2013-09-11 23:48:00,78.2,68.0,29.95,NW,315,7.2,14.0,70,0.00,,,0.00,Rainwise IP-100,2013-09-12 03:48:00,
2013-09-11 23:53:00,78.2,68.0,29.95,West,270,11.9,18.0,70,0.00,,,0.00,Rainwise IP-100,2013-09-12 03:53:00,
2013-09-11 23:58:00,78.1,67.0,29.96,WNW,292,9.6,22.0,69,0.00,,,0.00,Rainwise IP-100,2013-09-12 03:58:00,